[[{"header":{"parameterUnit":"m.s-1","parameterCategory":1,"la1":30.2992,"la2":30.254,"lo1":-89.0895,"lo2":-89.0443,"dy":0.0025,"dx":0.0025,"nx":19,"ny":19,"refTime":"2026-05-07T09:00:00:Z","depth":0,"parameterNumber":2,"parameterNumberName":"U-component_of_WINDS"},"data":[0,0,0,-2.4827,-2.4826,-2.4749,-2.4748,-2.4685,-2.4684,0,0,0,0,0,0,0,0,0,0,0,-2.4873,-2.4873,-2.4827,-2.4826,-2.4749,-2.4748,-2.4685,-2.4684,0,0,0,0,0,0,0,0,0,0,0,-2.4873,-2.4873,-2.4874,-2.4826,-2.4749,-2.4748,-2.4685,-2.473,0,0,0,0,0,0,0,0,0,0,-2.4799,-2.4864,-2.4873,-2.4874,-2.4825,-2.4749,-2.4748,-2.4732,-2.4727,-2.4735,0,-2.475,0,-2.4717,-2.4683,-2.4683,0,0,0,-2.4808,-2.4868,-2.4826,-2.4874,-2.4825,-2.4749,-2.4779,-2.4729,-2.4724,-2.473,-2.4749,-2.4745,-2.4716,-2.4682,-2.4682,-2.4794,-2.4795,0,0,-2.4812,-2.4871,-2.483,-2.4825,-2.4841,-2.4781,-2.4776,-2.4725,-2.4749,-2.4748,-2.4743,-2.4715,-2.4682,-2.4682,-2.4793,-2.4794,0,0,0,-2.4837,-2.4875,-2.4834,-2.4828,-2.4812,-2.4779,-2.4774,-2.4751,-2.4733,-2.4742,-2.4714,-2.4682,-2.4682,-2.4791,-2.4793,-2.492,0,0,0,-2.4838,-2.4888,-2.4836,-2.4871,-2.4814,-2.4781,-2.4802,-2.4737,-2.4729,-2.4714,-2.4682,-2.4682,-2.4789,-2.4792,-2.4913,-2.4971,0,0,0,-2.487,-2.4892,-2.4889,-2.4875,-2.4844,-2.478,-2.4759,-2.4734,-2.4713,-2.4682,-2.4681,-2.4788,-2.4792,-2.4907,-2.496,-2.502,0,0,0,-2.492,-2.5,-2.4892,-2.497,-2.4845,-2.486,-2.4758,-2.4765,-2.4754,-2.4682,-2.479,-2.4793,-2.4905,-2.4954,-2.5014,-2.5083,-2.5116,0,0,-2.5054,-2.5018,-2.506,-2.4961,-2.501,-2.4867,-2.4933,-2.4866,-2.4808,-2.4801,-2.4803,-2.4916,-2.496,-2.5019,-2.5279,-2.5306,0,0,0,-2.5122,-2.5153,-2.5153,-2.5147,-2.5099,-2.5064,-2.498,-2.4955,-2.4948,-2.4817,-2.4949,-2.4974,-2.5006,-2.5036,-2.5059,-2.5084,-2.4809,-2.4808,-2.4808,-2.5396,-2.532,-2.5384,-2.5299,-2.5294,-2.5209,-2.5198,-2.5149,-2.5071,-2.5104,-2.5102,-2.527,-2.5307,-2.5324,-2.5351,-2.513,-2.513,-2.5131,-2.5131,-2.5587,-2.562,-2.5517,-2.5543,-2.5462,-2.5481,-2.5402,-2.5346,-2.5352,-2.5264,-2.5288,-2.5201,-2.5357,-2.5376,-2.514,-2.5138,-2.5137,-2.5136,-2.5136,-2.5761,-2.5764,-2.5734,-2.5718,-2.5715,-2.5624,-2.5636,-2.556,-2.5487,-2.5511,-2.5503,-2.5501,-2.5491,-2.5512,-2.5513,-2.5514,-2.5514,-2.5514,-2.5515,-2.5954,-2.5916,-2.5937,-2.5895,-2.5882,-2.5855,-2.577,-2.5755,-2.5718,-2.5661,-2.5661,-2.5582,-2.5385,-2.534,-2.5524,-2.5522,-2.5521,-2.552,-2.5519,-2.6182,-2.6118,-2.6151,-2.6139,-2.6083,-2.6087,-2.5988,-2.5964,-2.5939,-2.5948,-2.5863,-2.573,-2.5687,-2.5668,-2.563,-2.5878,-2.5878,-2.5878,-2.5878,-2.6331,-2.6302,-2.6319,-2.6305,-2.6281,-2.6197,-2.6236,-2.6172,-2.6094,-2.6074,-2.6026,-2.5968,-2.5952,-2.5919,-2.5894,-2.5858,-2.6158,-2.6158,-2.6158,-2.6468,-2.6433,-2.6483,-2.6408,-2.636,-2.632,-2.6355,-2.6342,-2.6239,-2.6168,-2.6058,-2.6046,-2.595,-2.5923,-2.5853,-2.5816,-2.5747,0,0]},{"header":{"parameterUnit":"m.s-1","parameterCategory":1,"la1":30.2992,"la2":30.254,"lo1":-89.0895,"lo2":-89.0443,"dy":0.0025,"dx":0.0025,"nx":19,"ny":19,"refTime":"2026-05-07T09:00:00:Z","depth":0,"parameterNumber":3,"parameterNumberName":"V-component_of_WINDS"},"data":[0,0,0,-0.635,-0.6353,-0.651,-0.6511,-0.6687,-0.6689,0,0,0,0,0,0,0,0,0,0,0,-0.6289,-0.629,-0.635,-0.6353,-0.651,-0.6511,-0.6687,-0.6689,0,0,0,0,0,0,0,0,0,0,0,-0.6289,-0.629,-0.6291,-0.6354,-0.651,-0.6511,-0.6687,-0.6577,0,0,0,0,0,0,0,0,0,0,-0.6429,-0.6359,-0.629,-0.6291,-0.6355,-0.6509,-0.6511,-0.6572,-0.6584,-0.6606,0,-0.6622,0,-0.6658,-0.6699,-0.6699,0,0,0,-0.6364,-0.6349,-0.6404,-0.6291,-0.6356,-0.6509,-0.6442,-0.6579,-0.6592,-0.6621,-0.6625,-0.6632,-0.6661,-0.67,-0.6701,-0.6791,-0.6791,0,0,-0.6356,-0.631,-0.6395,-0.6412,-0.6386,-0.6437,-0.6447,-0.6587,-0.6588,-0.6625,-0.6636,-0.6664,-0.6701,-0.6702,-0.6791,-0.6791,0,0,0,-0.6323,-0.6303,-0.6356,-0.6404,-0.6434,-0.6441,-0.6453,-0.6582,-0.6603,-0.6639,-0.6666,-0.6702,-0.6704,-0.6791,-0.6791,-0.6742,0,0,0,-0.6319,-0.6285,-0.6351,-0.6325,-0.6431,-0.651,-0.6444,-0.6593,-0.661,-0.6665,-0.6702,-0.6705,-0.6791,-0.6791,-0.6743,-0.6726,0,0,0,-0.6284,-0.6281,-0.6299,-0.6322,-0.6388,-0.6509,-0.6538,-0.6598,-0.6626,-0.67,-0.6706,-0.6792,-0.6791,-0.6745,-0.6729,-0.6736,0,0,0,-0.6234,-0.6254,-0.6297,-0.6329,-0.6386,-0.6476,-0.6537,-0.6608,-0.6664,-0.6703,-0.6791,-0.6791,-0.6745,-0.6731,-0.6738,-0.6734,-0.6729,0,0,-0.6233,-0.6252,-0.6274,-0.6318,-0.6388,-0.6456,-0.652,-0.6617,-0.6666,-0.6746,-0.6749,-0.6743,-0.6729,-0.6737,-0.6712,-0.6707,0,0,0,-0.6259,-0.6274,-0.6303,-0.6354,-0.6427,-0.6488,-0.6579,-0.6614,-0.6684,-0.6698,-0.6749,-0.6742,-0.6748,-0.6749,-0.6745,-0.6753,-0.6789,-0.6789,-0.6789,-0.6193,-0.6253,-0.6294,-0.6373,-0.6422,-0.6514,-0.6559,-0.6623,-0.6671,-0.6681,-0.6706,-0.6684,-0.6682,-0.668,-0.6687,-0.6709,-0.6709,-0.6709,-0.6708,-0.6198,-0.6229,-0.629,-0.6351,-0.6414,-0.6467,-0.6556,-0.6587,-0.6645,-0.6671,-0.6679,-0.6702,-0.6672,-0.6682,-0.6705,-0.6706,-0.6706,-0.6707,-0.6707,-0.6162,-0.6187,-0.6229,-0.6308,-0.6362,-0.6441,-0.6493,-0.6549,-0.6603,-0.6611,-0.6643,-0.6644,-0.6652,-0.6622,-0.6622,-0.6622,-0.6622,-0.6622,-0.6622,-0.6108,-0.6157,-0.6193,-0.627,-0.631,-0.6369,-0.646,-0.65,-0.656,-0.6597,-0.6597,-0.6643,-0.6658,-0.6661,-0.6621,-0.6621,-0.6621,-0.6621,-0.6621,-0.6091,-0.6103,-0.616,-0.6199,-0.6294,-0.6343,-0.6413,-0.649,-0.6532,-0.6555,-0.6599,-0.6601,-0.6624,-0.6628,-0.6631,-0.6586,-0.6586,-0.6586,-0.6586,-0.6061,-0.6078,-0.6148,-0.6206,-0.627,-0.6339,-0.64,-0.647,-0.6545,-0.6574,-0.6588,-0.6596,-0.6597,-0.6621,-0.6624,-0.6628,-0.6583,-0.6583,-0.6583,-0.6054,-0.6079,-0.6121,-0.6193,-0.627,-0.6335,-0.6394,-0.6459,-0.6546,-0.6584,-0.6598,-0.6598,-0.6612,-0.6613,-0.6653,-0.6658,-0.6665,0,0]}]]